Wind_Speed
30 30 30 30 29 28 27 25 24 23 22 21 21 21 20 20 20 19 19 19 19 18 19 19 19 19 19 19 18 17 16 16 16 16 15 14 12 12 12 12 12 11 10 9 8 7 7 6 5 5 4 4 3 4 3 3 2 1 0 0 0 1 2 2 2 2 3 4 6 7 9 9 9 10 9 9 10 10 9 10 10 10 11 11 10
30 30 30 30 30 29 27 26 25 24 23 22 22 21 20 20 19 19 19 19 19 19 19 19 19 18 18 19 19 18 17 16 16 16 15 14 13 12 11 11 12 12 11 11 9 8 7 7 6 6 6 6 5 4 3 2 2 2 1 0 1 1 2 3 2 2 2 3 5 7 8 9 9 10 10 10 10 10 10 10 11 11 12 12 12
31 30 29 29 30 29 28 26 25 25 24 23 22 21 20 20 19 20 20 19 18 18 18 18 18 18 17 17 17 17 17 16 15 16 15 15 14 14 12 12 12 12 12 12 11 9 9 9 8 7 7 8 7 6 5 3 3 3 2 1 2 2 2 3 3 2 2 3 4 6 7 7 7 8 8 8 9 9 10 11 12 13 13 14 14
29 29 28 28 28 28 27 26 25 25 24 23 22 21 20 19 19 19 19 19 19 18 18 18 18 17 17 17 17 16 16 16 16 16 16 15 15 15 14 13 13 12 12 12 11 10 9 9 8 7 8 9 9 8 7 4 3 3 3 3 3 4 3 4 4 4 3 3 3 4 5 5 4 5 5 5 7 8 10 11 12 13 14 14 14
26 27 28 28 27 27 26 26 25 24 23 22 21 20 19 18 18 19 19 19 19 18 18 18 18 18 18 17 17 17 16 16 16 17 17 16 16 16 15 14 14 13 12 11 11 10 10 9 8 7 8 9 9 8 8 7 6 5 4 4 5 5 5 5 5 5 5 4 3 2 3 3 2 2 4 5 7 8 9 10 10 12 14 14 13
24 24 25 26 26 26 26 25 25 24 23 21 20 20 19 18 18 18 19 19 18 18 18 19 19 19 19 18 17 18 18 18 17 18 17 17 17 17 16 16 15 14 13 13 12 11 11 11 10 9 9 10 9 9 8 8 8 7 6 6 7 7 7 7 7 6 6 5 4 2 3 3 2 2 5 7 7 8 8 9 10 12 14 13 11
23 23 23 23 24 24 24 24 24 23 21 20 19 18 18 18 18 18 17 18 18 18 19 19 19 19 19 19 18 18 18 18 18 18 18 17 17 17 17 17 16 16 15 14 13 13 13 13 12 11 11 11 10 10 9 9 9 9 8 7 8 8 8 8 8 7 6 6 4 4 4 4 4 4 5 6 6 6 8 9 11 12 14 12 9
25 25 24 24 24 23 23 21 21 20 20 19 18 17 17 17 17 17 17 17 18 19 19 19 20 20 20 19 19 18 18 18 18 17 18 18 18 18 17 16 16 16 16 15 14 14 13 13 13 12 12 12 11 11 10 11 11 11 10 9 9 9 9 9 9 8 7 6 6 5 6 6 6 5 4 4 4 4 6 8 10 11 13 11 8
27 26 26 26 26 25 24 22 21 20 19 19 18 17 16 14 14 15 16 18 19 19 19 19 19 20 20 20 19 19 19 19 18 18 18 18 19 19 18 17 16 15 15 15 14 14 14 14 14 14 13 12 11 12 12 12 12 13 13 11 11 11 10 10 10 10 8 8 8 8 8 7 5 4 3 3 3 3 4 6 7 9 11 9 6
28 27 26 27 27 27 25 24 23 22 21 20 19 17 16 16 14 14 15 17 18 19 19 20 20 20 20 21 20 20 20 20 19 19 18 18 19 19 19 18 17 16 16 16 15 15 14 15 15 14 14 13 12 13 13 13 13 14 14 13 12 12 11 11 12 12 11 10 10 9 8 7 4 3 3 3 2 2 3 5 7 8 9 8 5
28 28 28 27 26 26 25 24 23 23 22 21 20 19 19 18 18 17 15 16 18 19 20 20 21 22 22 21 21 21 21 20 19 19 19 19 19 19 19 19 18 18 18 17 17 16 15 15 15 15 14 14 13 13 14 15 15 15 15 14 13 13 12 13 14 14 12 12 11 9 8 6 4 3 3 2 1 1 2 4 6 8 8 6 3
21 21 22 24 25 23 22 22 21 20 19 18 18 19 19 19 20 20 18 16 18 19 20 21 22 22 23 23 23 23 22 21 20 20 20 20 20 20 20 19 19 19 19 19 19 18 17 16 16 16 15 14 13 14 14 15 16 17 16 15 14 14 13 13 14 14 13 12 11 9 8 6 4 3 2 1 1 2 3 4 5 6 6 4 3
17 17 18 22 23 21 20 19 18 18 16 14 14 16 17 18 19 20 18 16 17 19 20 21 21 21 21 21 23 23 23 23 22 22 21 21 21 21 21 21 20 20 20 20 20 19 18 17 17 17 16 15 16 16 15 16 16 17 17 17 16 15 14 13 13 13 12 11 10 9 8 6 5 4 3 3 3 4 4 5 5 4 4 2 4
18 20 22 22 21 20 19 18 18 17 15 13 13 13 14 15 16 15 13 12 14 16 17 17 18 19 19 19 20 21 22 23 23 23 22 22 21 21 21 21 21 20 20 20 20 20 19 17 17 17 17 17 17 17 17 16 16 16 17 17 17 16 15 14 15 15 13 12 11 10 8 7 6 5 4 4 4 5 7 8 7 5 2 1 4
17 19 20 20 19 19 18 17 17 17 16 15 14 13 13 13 12 12 11 11 11 12 12 12 13 14 15 16 16 17 19 22 22 22 22 22 22 21 21 21 21 21 21 20 20 20 19 19 19 18 17 18 18 18 17 16 16 16 15 15 17 18 16 14 14 14 13 12 11 10 8 7 6 5 5 5 6 8 9 9 8 6 2 4 6
16 15 14 15 16 16 15 15 16 17 17 16 15 14 14 13 13 13 13 13 13 12 12 11 10 10 12 12 12 13 17 20 21 21 22 21 21 21 21 21 22 22 22 22 22 21 21 20 20 19 18 19 18 17 16 15 15 15 14 15 16 13 10 9 10 10 9 8 8 8 7 6 7 7 7 8 9 10 9 8 8 6 5 7 7
14 11 9 9 10 11 11 12 13 14 14 13 13 13 12 11 12 13 13 13 15 15 14 12 11 12 12 11 11 11 14 16 18 18 19 19 20 20 21 21 22 22 23 23 22 22 22 21 21 21 20 20 19 17 16 16 15 15 15 13 9 6 6 10 13 13 11 9 9 8 7 8 10 9 8 9 9 8 8 9 9 7 8 8 6
13 11 8 5 5 5 7 8 8 10 11 11 11 10 9 9 9 10 10 11 12 12 12 12 13 13 12 11 11 10 11 12 14 14 15 16 17 18 19 20 21 22 23 23 22 22 22 22 22 21 21 20 19 17 16 16 16 16 14 9 5 6 10 13 14 14 12 10 9 7 8 10 11 10 8 7 6 6 7 8 8 8 9 7 5
10 8 5 1 1 2 3 5 6 7 8 8 8 7 7 8 9 10 10 11 12 11 12 12 12 11 10 9 9 8 9 10 12 13 13 13 14 15 16 17 19 20 20 20 20 20 20 20 20 21 21 20 17 14 14 15 14 14 12 8 9 14 14 11 10 11 10 9 8 6 6 9 9 6 5 4 3 3 3 2 4 7 8 7 5
9 7 5 3 3 4 4 4 5 5 5 5 6 6 7 8 9 11 12 13 14 14 15 13 11 9 8 8 8 7 8 9 10 11 12 12 12 12 12 14 15 17 17 17 17 17 16 16 19 20 21 19 17 16 16 15 13 11 10 10 12 15 14 13 12 11 9 8 7 6 8 9 7 4 4 4 5 5 5 6 6 5 5 5 5
15 14 14 13 12 10 10 9 7 5 4 4 5 6 6 7 8 9 11 12 14 15 15 13 9 7 7 8 7 7 7 7 8 9 10 11 11 11 10 11 13 15 15 16 18 18 16 16 18 19 18 17 17 18 18 15 14 12 11 10 11 12 13 14 14 12 9 7 8 10 11 10 8 7 8 8 8 8 7 7 7 5 3 3 4
19 18 18 17 15 13 13 13 13 10 7 5 6 6 6 6 6 7 9 10 12 13 12 10 8 8 6 5 5 5 3 2 3 6 7 7 8 7 8 9 11 13 14 17 20 21 19 18 19 19 17 17 18 18 17 15 14 13 11 10 9 9 10 11 11 11 10 8 8 11 12 12 11 11 11 10 10 9 8 8 7 5 5 4 4
17 16 17 17 15 15 15 16 16 15 12 9 8 8 7 6 6 6 5 4 5 6 6 7 10 12 10 8 7 5 2 3 2 2 4 5 5 5 6 7 7 9 12 14 17 17 17 18 18 18 18 18 18 18 17 16 13 12 11 10 9 9 9 10 10 10 9 8 9 12 14 14 14 13 13 12 11 10 9 9 7 6 6 7 6
15 14 15 15 15 16 16 16 16 16 15 14 12 10 9 9 7 5 5 7 9 9 9 10 12 14 14 11 9 7 5 5 5 3 3 5 6 5 4 4 5 6 9 11 11 11 13 15 16 16 16 16 16 16 16 15 13 13 12 11 10 10 11 11 9 9 10 12 14 16 17 16 16 16 15 14 13 11 10 10 9 7 7 8 8
12 11 11 12 12 13 13 13 13 14 15 16 15 14 12 11 10 8 7 10 11 11 11 11 13 15 15 13 11 9 8 7 7 6 6 6 6 7 6 6 5 5 5 7 8 9 11 13 14 15 15 15 15 14 14 14 14 14 13 12 11 9 6 6 5 6 11 15 18 19 19 18 17 17 16 15 14 12 11 11 10 9 9 9 9
9 8 8 8 9 10 11 12 12 11 11 13 14 14 13 12 12 11 10 11 13 11 10 10 12 13 14 13 12 10 8 8 7 7 7 7 7 8 8 8 8 7 5 5 7 9 10 11 12 14 16 16 13 10 10 12 14 14 13 13 11 8 6 6 5 7 12 16 19 19 20 20 19 18 17 15 14 13 11 11 11 11 9 7 7
8 8 8 8 9 9 10 11 11 10 10 10 10 11 10 11 11 12 11 11 11 9 8 9 11 12 12 11 10 9 8 7 7 7 8 8 8 9 9 9 9 9 8 7 7 7 8 8 9 11 13 14 11 8 8 10 11 12 12 11 10 8 8 8 7 9 13 16 19 20 20 20 19 19 17 15 15 14 12 11 11 10 8 5 5
5 6 7 7 8 8 10 10 10 11 11 10 10 9 8 8 8 10 10 10 9 9 9 9 9 9 8 8 7 7 6 6 6 7 7 8 9 9 9 9 9 9 8 7 7 6 6 6 7 7 7 8 7 5 4 4 5 6 6 7 9 7 6 5 5 10 16 19 21 21 20 19 18 17 16 14 14 13 11 9 8 8 6 4 4
5 5 5 5 6 7 8 9 9 10 9 9 10 10 9 8 7 8 8 8 8 8 8 8 8 7 7 6 6 6 6 6 7 7 8 8 9 9 10 9 8 8 7 6 5 5 5 4 2 2 1 1 1 0 1 1 1 1 2 3 5 5 7 7 9 13 17 20 21 21 19 18 17 15 13 12 11 11 8 6 6 5 4 3 4
5 5 4 4 5 6 7 8 8 8 7 8 9 11 11 10 9 9 9 9 8 7 6 7 7 6 6 5 5 6 6 6 7 7 7 8 8 8 8 8 7 6 6 5 3 3 3 4 3 2 2 4 6 5 4 5 7 9 9 8 8 10 12 14 16 18 19 19 20 19 17 16 14 11 9 10 10 9 7 5 4 3 3 4 6
4 4 3 3 4 5 5 7 7 7 7 7 7 8 10 10 9 9 9 8 7 7 7 7 7 7 7 6 5 5 5 5 5 6 7 7 6 5 6 6 5 5 5 3 4 6 8 8 8 8 9 11 12 11 10 11 13 15 15 15 14 15 16 17 18 19 19 18 17 16 14 12 11 10 10 10 10 8 6 5 4 3 4 4 5
6 4 2 2 3 3 4 4 5 6 7 7 7 7 8 9 9 9 8 7 8 8 9 9 10 10 10 9 8 7 5 5 5 5 6 6 5 6 6 5 5 5 3 3 7 11 12 14 14 14 14 15 15 15 15 15 15 16 17 18 17 16 17 17 16 16 16 15 14 13 12 11 11 11 10 9 8 7 6 5 4 4 4 4 4
7 5 3 1 1 1 1 2 3 4 5 6 6 7 7 9 11 11 10 9 9 9 10 11 11 12 12 12 12 11 9 7 7 6 6 5 6 6 6 6 6 5 3 6 12 15 16 17 18 17 17 17 17 17 17 17 17 17 18 18 18 17 16 15 14 14 14 13 12 12 11 10 10 9 8 7 6 5 5 4 4 3 3 3 4
4 4 3 1 1 2 2 2 1 2 3 3 4 6 6 8 10 11 11 10 10 9 9 11 11 12 14 14 14 14 12 11 9 8 7 7 7 7 7 8 9 8 9 12 16 18 18 19 19 18 18 18 18 18 18 18 17 17 17 17 16 15 13 11 11 11 12 11 11 11 10 9 8 7 7 6 5 4 3 3 3 2 2 3 3
4 3 2 2 2 3 3 3 3 3 2 2 2 2 4 6 7 8 9 9 10 9 9 9 10 11 13 14 14 14 14 13 12 10 8 7 7 7 8 11 13 14 15 17 18 19 19 19 19 18 18 17 17 16 16 16 15 15 14 14 13 11 10 9 10 10 10 10 10 10 9 8 7 6 5 4 4 3 3 2 2 1 1 2 3
7 5 4 4 4 4 4 3 3 3 3 3 4 4 4 5 5 6 6 7 8 8 8 8 9 10 11 12 12 12 13 12 11 9 7 6 5 5 7 12 16 17 17 17 17 17 18 17 17 16 15 15 15 14 13 13 12 12 11 10 10 9 9 9 9 9 9 9 9 8 7 7 6 5 4 4 3 3 2 1 1 0 0 1 2
8 7 7 6 6 5 5 4 3 3 3 3 4 4 5 6 7 7 7 7 7 7 7 7 7 7 8 9 9 10 10 10 9 8 7 5 4 6 9 12 14 15 15 15 14 14 15 14 14 14 13 13 13 12 11 11 10 10 9 8 8 8 9 9 9 8 8 8 8 7 6 6 6 5 5 5 4 3 3 2 1 0 1 2 2
8 9 8 8 8 7 6 5 5 5 6 7 6 5 5 6 8 9 9 9 9 8 8 8 7 6 6 6 6 6 6 6 6 6 7 7 7 8 10 11 12 13 13 13 12 12 12 12 12 12 12 12 11 10 10 9 9 8 7 7 7 7 7 7 7 7 7 7 7 6 6 6 6 5 5 5 4 3 2 2 2 2 2 2 2
10 10 10 10 9 8 7 7 7 7 8 9 9 8 7 6 7 10 11 11 11 10 10 9 7 5 4 4 4 3 3 3 5 6 8 9 9 10 10 10 11 12 12 11 11 11 11 11 11 10 10 10 10 9 9 8 7 7 6 5 5 5 5 5 5 5 5 6 6 6 5 5 5 5 5 4 4 3 2 2 3 2 2 2 2
12 11 11 11 11 11 9 9 9 9 7 7 7 9 8 7 7 9 10 12 13 13 12 11 9 6 4 3 2 2 2 3 5 7 8 8 9 9 9 9 10 10 10 10 10 10 10 10 9 9 9 10 9 8 8 6 5 5 4 3 3 3 4 4 5 5 5 5 5 5 5 5 5 5 4 4 3 3 3 3 3 3 3 3 3
10 11 12 13 13 13 12 12 12 11 9 6 6 7 8 8 8 9 10 12 14 14 13 12 10 7 4 3 2 2 1 2 4 5 6 6 7 7 7 8 8 8 8 9 8 8 9 9 9 10 10 10 9 8 6 4 3 2 2 2 2 3 4 4 4 4 5 5 5 5 5 4 4 4 4 4 3 3 3 3 3 3 3 2 2
9 10 11 12 13 14 14 15 14 13 12 11 9 9 9 10 9 9 11 12 14 15 14 13 10 8 5 4 3 3 3 3 4 5 5 5 5 6 6 7 7 7 7 8 7 7 8 8 8 8 8 8 7 6 5 3 2 2 2 2 3 4 4 4 4 4 4 5 5 5 5 4 4 4 4 4 3 3 3 3 3 3 2 1 1
10 10 11 12 12 13 15 16 16 15 15 15 14 13 12 12 11 11 11 13 14 15 16 14 12 9 7 6 5 4 4 5 5 5 5 5 5 5 6 6 6 7 7 7 7 7 6 6 7 7 7 7 6 5 3 2 2 2 2 2 3 3 3 3 3 4 4 5 6 6 6 5 5 5 4 4 4 3 3 3 3 3 2 1 1
11 11 12 12 13 13 14 15 16 17 17 17 16 16 15 14 13 13 13 13 14 15 16 15 13 11 9 8 8 7 6 6 6 6 6 6 5 5 5 6 6 6 6 6 6 5 5 5 6 7 6 5 4 3 3 3 3 3 2 2 2 2 2 3 3 4 5 7 7 7 7 6 5 5 5 4 4 3 3 2 3 3 2 1 1
12 12 12 13 13 14 14 15 16 17 18 17 16 16 15 15 15 15 15 15 15 15 16 16 14 12 11 10 9 8 8 8 8 7 7 7 6 6 6 6 6 5 5 5 4 4 4 5 6 6 5 3 3 3 3 3 3 3 3 2 2 2 3 3 4 5 6 7 8 9 9 8 6 5 5 5 4 4 4 3 3 2 2 2 2
13 14 13 13 14 14 15 16 16 16 17 18 17 17 17 17 17 16 17 17 16 17 18 17 15 13 11 10 10 10 9 8 8 8 8 7 7 6 6 6 5 4 3 3 3 3 3 4 5 5 4 3 3 3 3 3 3 3 3 3 4 4 5 5 6 6 7 7 9 11 11 9 6 5 5 5 4 4 4 4 3 3 2 2 2
13 13 13 13 13 14 14 15 16 16 16 17 17 18 18 18 18 17 18 18 18 19 20 19 16 14 13 12 11 10 9 9 9 9 8 8 7 7 7 6 5 4 3 2 2 2 2 3 3 3 2 2 3 3 3 2 2 3 4 5 6 7 8 9 9 8 8 8 10 11 10 8 7 6 6 6 5 5 5 4 4 3 3 3 3
12 11 11 10 11 12 13 14 15 15 15 15 16 16 17 17 18 18 19 19 19 20 21 20 18 16 15 14 13 12 11 11 10 10 10 9 8 8 7 6 5 4 4 3 3 2 0 1 1 1 0 2 2 2 2 2 1 2 3 4 6 8 10 10 10 8 7 8 9 9 8 7 7 6 6 5 6 6 5 5 5 4 3 3 3
9 9 9 9 9 10 11 13 14 14 14 14 14 15 15 16 18 19 19 20 20 20 20 19 18 17 16 14 13 12 12 12 12 12 12 11 10 8 7 6 6 5 5 4 3 3 2 1 2 2 3 4 3 3 3 2 1 2 3 4 6 7 7 7 6 5 5 5 6 6 6 6 6 5 5 5 6 6 6 5 5 4 3 3 3
7 8 9 9 9 10 11 11 12 11 11 10 11 12 13 14 16 17 17 17 17 17 17 17 16 16 15 14 13 13 13 13 13 12 12 11 10 9 8 7 7 7 6 5 4 4 3 3 3 4 4 5 5 4 3 1 1 2 3 4 5 4 4 4 4 4 4 5 6 7 7 6 5 4 5 5 6 6 6 5 4 4 3 3 3
6 7 8 8 9 9 9 10 10 9 8 8 8 9 10 11 12 13 13 12 12 14 16 16 16 15 14 13 12 12 12 12 12 12 11 11 10 10 9 9 8 7 6 6 5 4 4 4 4 5 5 5 4 3 1 1 1 2 3 3 3 3 4 4 5 5 6 6 7 8 9 8 6 4 4 4 4 4 4 3 3 3 3 3 4
Wind_Direction
207 209 212 215 218 221 223 226 227 228 229 231 234 237 240 242 243 245 244 242 243 244 246 249 249 250 250 251 253 254 254 252 249 249 253 255 259 263 261 257 257 258 253 249 250 252 260 266 257 250 249 257 281 303 314 313 291 284 248 179 255 276 282 258 234 288 337 29 39 37 41 41 37 37 48 69 74 70 67 61 53 48 44 39 33
208 210 212 214 217 220 223 226 226 227 229 231 236 238 240 240 241 241 242 243 245 247 249 249 248 248 249 249 250 254 257 254 246 244 246 249 253 258 257 256 258 259 256 254 253 252 261 271 264 252 249 254 269 285 289 295 289 274 259 294 280 274 281 265 235 254 313 10 33 42 45 43 47 54 63 71 71 65 59 51 41 35 28 22 18
209 210 212 214 217 220 223 225 226 226 227 229 233 237 238 239 240 240 241 245 248 248 248 247 246 247 248 248 250 254 255 251 242 239 243 248 252 254 253 252 256 259 260 260 261 263 271 280 277 264 255 252 255 261 269 282 289 272 249 235 254 270 273 255 239 243 282 339 17 36 43 49 62 69 67 61 52 43 38 35 32 30 24 16 13
210 209 211 214 217 219 221 224 226 226 226 228 230 234 238 240 241 241 244 247 249 248 245 244 246 248 248 247 250 252 251 248 243 240 243 247 252 254 254 253 254 256 260 263 265 268 272 278 279 270 260 253 250 251 254 260 270 267 252 249 255 255 250 248 251 252 264 300 346 23 35 47 66 65 52 40 30 24 22 20 20 25 25 18 14
210 209 211 213 215 217 220 222 225 226 228 230 232 234 237 239 242 243 247 250 251 249 246 246 247 248 248 249 249 250 250 250 249 247 247 249 253 255 256 255 255 255 258 262 264 264 264 268 274 269 258 252 250 249 246 249 259 259 250 253 256 250 247 249 249 247 258 277 297 346 9 17 39 24 9 9 8 5 9 14 17 22 25 21 19
210 209 210 212 213 216 218 221 223 226 229 232 235 238 239 240 243 244 247 252 253 253 250 249 250 251 251 252 253 253 254 255 256 254 253 254 255 256 258 259 259 258 258 260 262 262 263 265 268 265 257 254 255 255 252 255 260 255 248 251 254 252 252 246 239 243 253 258 262 278 307 322 320 330 345 353 357 355 0 14 22 23 24 22 22
208 207 209 212 214 216 218 220 223 226 230 234 239 244 247 248 250 250 251 253 254 255 253 252 253 254 254 255 256 257 257 258 259 258 257 256 256 257 260 263 261 260 260 260 261 262 264 263 261 259 257 258 260 260 259 262 263 259 254 255 253 248 247 243 239 243 246 239 243 265 285 299 301 310 330 343 353 359 4 12 17 21 24 24 24
206 207 208 211 214 216 217 218 220 223 227 231 236 242 246 251 255 256 256 256 256 257 257 258 258 258 257 257 259 260 259 258 257 258 258 257 256 258 262 263 261 260 260 260 261 264 266 263 258 256 256 258 260 261 259 260 261 259 258 258 252 244 242 244 241 239 237 233 242 263 279 288 290 298 318 336 354 6 14 17 17 19 21 25 29
201 204 207 209 212 213 213 214 216 219 222 225 229 232 237 244 252 258 259 259 259 261 262 263 262 262 260 260 262 262 260 258 257 257 258 257 258 260 263 262 260 259 259 259 260 264 266 264 258 256 256 257 261 263 262 260 259 258 257 255 249 243 243 242 237 232 230 233 246 262 272 274 276 290 313 336 354 3 10 11 13 17 19 26 37
199 201 206 209 210 210 210 212 215 219 223 226 230 233 237 241 246 256 264 264 262 263 266 266 265 265 264 263 264 265 263 262 260 258 259 260 261 263 264 263 260 259 259 258 259 262 264 263 259 257 258 257 259 262 264 261 257 255 253 250 244 242 243 241 236 231 231 240 252 259 261 262 267 289 317 336 349 2 1 354 0 9 14 28 45
200 201 205 207 208 207 207 209 213 218 223 227 230 233 236 239 241 246 258 269 268 264 265 267 267 267 267 266 266 266 266 265 264 261 260 261 263 263 263 263 261 260 259 259 260 262 264 265 263 261 262 260 258 260 262 261 259 255 251 247 244 242 243 242 237 233 236 245 252 251 250 254 264 284 309 330 343 350 345 340 349 358 6 26 48
201 203 203 202 203 204 203 206 211 216 221 225 230 235 236 237 239 241 247 263 274 271 264 264 266 267 268 267 267 267 267 266 265 265 264 263 263 262 260 259 259 260 261 261 263 264 266 269 269 266 263 261 260 260 260 259 257 254 251 248 244 243 245 244 239 239 244 248 248 243 242 246 251 261 272 271 286 309 314 315 329 345 354 16 51
203 209 210 203 200 199 199 202 207 212 214 218 228 235 238 238 238 238 241 253 269 273 268 262 261 262 263 264 266 267 267 267 266 265 264 263 262 260 259 257 256 258 261 263 264 266 268 270 271 267 263 262 261 260 261 260 257 254 253 250 244 243 245 241 237 242 249 248 244 239 235 237 244 250 245 243 266 285 291 295 303 321 334 6 71
196 205 212 208 200 197 199 201 206 211 213 217 228 236 239 240 236 233 234 240 251 260 261 258 258 258 258 259 263 265 265 265 264 263 262 261 258 254 254 255 256 258 262 263 264 266 268 270 273 271 266 262 260 259 261 263 263 261 258 251 244 243 242 237 233 238 243 244 244 242 237 243 255 258 251 255 277 289 291 291 291 296 303 119 112
186 193 204 204 198 197 200 200 203 211 215 218 224 230 234 237 233 225 220 221 228 238 248 254 257 259 260 260 261 262 262 262 262 261 260 258 254 250 250 251 253 256 259 261 263 265 267 269 272 273 270 266 262 259 260 262 265 266 265 258 251 246 241 234 231 235 240 242 246 248 246 253 265 268 269 281 297 300 296 291 283 277 237 158 142
176 183 193 198 196 195 194 192 196 208 216 219 218 221 227 234 238 237 231 228 232 240 250 259 263 263 263 263 262 262 261 260 259 258 256 254 251 249 248 248 250 253 256 259 261 264 266 267 268 268 267 266 263 258 257 260 263 265 269 266 256 243 231 227 230 241 252 255 256 259 260 267 272 271 277 291 301 300 289 275 266 253 203 167 154
158 167 175 180 182 181 178 178 183 195 208 215 215 215 217 223 240 252 250 244 244 249 253 258 261 262 262 265 265 263 258 256 255 256 256 255 253 250 249 249 250 252 255 258 261 263 263 263 263 262 261 262 261 256 254 259 261 263 267 264 250 227 233 240 239 243 254 258 255 259 276 285 282 280 286 295 300 292 271 257 250 225 186 173 163
140 145 145 140 140 150 166 180 190 196 204 211 218 222 216 212 228 247 254 254 254 254 254 253 252 252 252 255 260 259 255 254 257 260 260 259 256 254 252 252 253 255 258 260 261 262 263 261 258 257 257 258 257 254 254 258 261 264 263 253 230 235 244 241 237 237 243 248 251 260 280 283 280 284 293 296 292 278 263 255 239 204 178 171 165
135 143 147 141 47 91 146 188 206 203 197 198 207 219 219 216 223 234 246 254 253 252 255 252 244 238 235 237 241 243 244 251 257 261 263 263 262 260 257 256 255 256 259 261 261 260 263 262 255 250 249 250 251 255 259 260 262 265 261 245 242 246 237 225 231 239 240 245 253 257 255 255 260 271 277 270 258 245 237 212 194 183 167 156 152
116 118 113 98 81 93 116 147 178 179 164 167 183 200 214 218 223 230 239 244 245 247 249 241 226 218 224 227 226 230 239 247 252 257 261 264 265 266 266 264 261 258 260 266 269 266 265 262 254 247 246 245 245 250 255 255 255 257 253 243 248 251 242 232 237 244 245 245 240 222 212 217 220 209 185 163 147 147 140 128 135 153 153 148 146
105 104 100 93 87 87 90 96 108 117 121 144 162 173 194 210 216 223 229 231 232 233 232 222 203 197 219 227 223 228 239 248 257 264 268 269 270 273 275 274 274 271 267 268 270 271 270 265 256 248 245 241 238 239 244 247 245 243 240 239 247 256 253 245 240 238 234 225 211 201 195 190 180 167 157 147 139 137 133 125 123 124 121 129 132
101 101 97 91 87 87 86 86 88 90 93 107 123 134 155 177 189 199 210 216 215 213 211 201 169 149 161 176 179 201 227 261 274 276 282 286 292 296 291 286 284 282 276 268 265 265 264 258 250 244 240 238 235 235 238 241 238 234 231 230 234 240 241 239 234 225 213 201 198 196 187 177 169 160 152 145 139 134 128 122 120 117 109 107 117
91 93 93 91 89 90 87 84 85 87 87 88 93 104 117 129 144 160 166 161 156 147 148 151 134 120 115 115 124 143 127 64 54 307 305 322 335 336 321 309 299 284 273 266 261 256 252 249 246 242 239 237 234 233 231 231 229 226 220 216 212 210 212 216 221 221 216 208 202 191 180 173 166 157 149 144 138 133 128 122 119 118 115 112 114
74 75 83 87 87 85 81 80 82 83 82 82 82 84 86 87 93 101 95 92 95 97 104 117 116 108 105 105 105 105 95 78 74 62 26 9 6 5 352 326 307 281 261 256 253 242 235 236 237 236 236 237 236 233 227 222 220 217 211 206 203 203 206 208 209 215 214 203 192 183 175 168 160 152 146 142 138 135 131 125 123 122 121 120 117
69 70 77 84 87 83 76 72 73 75 76 77 75 72 72 75 79 83 84 90 97 100 99 101 101 100 103 105 101 95 89 80 73 67 54 38 26 21 13 357 344 328 286 268 266 260 253 250 246 243 240 235 231 229 224 217 215 215 212 208 202 195 198 198 193 211 210 193 177 170 164 158 153 148 144 142 142 139 135 133 131 129 127 124 118
81 88 88 87 85 78 72 71 72 74 79 80 78 76 76 77 81 83 82 86 95 100 99 97 99 99 100 99 95 88 80 70 62 55 47 38 29 20 12 5 3 1 346 314 296 288 285 279 267 257 250 239 229 228 228 223 221 224 227 223 211 191 181 175 173 206 208 184 165 159 157 152 147 144 142 144 145 145 147 148 142 136 134 131 117
92 93 94 93 87 78 76 77 76 78 80 81 85 90 89 86 86 87 87 89 92 95 95 96 98 98 97 97 95 90 81 69 55 42 32 24 18 11 4 359 359 -0 357 347 328 309 294 279 262 253 248 240 233 235 238 233 235 242 243 239 228 207 191 185 188 203 198 175 156 150 148 146 144 144 146 149 149 150 157 161 155 147 146 145 116
105 102 97 95 91 83 80 76 70 68 69 70 79 89 94 94 91 87 85 85 83 82 85 86 83 79 78 83 86 82 71 56 37 23 14 7 3 1 357 354 353 353 355 356 348 334 318 295 270 253 245 238 233 239 255 257 263 268 257 242 235 213 179 160 167 178 175 163 151 144 143 144 147 149 152 153 148 147 154 162 162 159 161 166 127
107 125 119 104 93 87 83 75 65 62 65 71 78 83 85 83 81 79 77 76 74 74 77 77 69 57 50 51 51 44 36 27 17 8 2 357 354 350 350 352 355 353 352 353 350 341 342 346 327 279 253 226 155 66 350 334 24 71 121 187 209 186 154 146 151 157 157 153 148 145 145 146 145 145 146 144 139 141 150 159 162 159 157 149 119
103 130 138 120 106 99 89 80 75 74 80 86 89 90 88 83 79 79 76 70 67 65 64 65 58 45 34 26 18 10 3 358 356 355 355 356 353 350 351 353 357 358 355 357 9 18 30 44 43 44 82 98 104 114 127 121 108 107 116 128 136 140 143 147 150 152 152 150 146 145 145 143 140 138 139 138 137 139 145 150 151 147 130 110 98
74 106 122 118 114 105 87 82 86 91 97 102 102 103 102 96 88 82 76 70 64 57 50 47 42 37 32 25 14 3 351 346 351 357 1 2 2 5 4 358 1 15 13 25 78 85 86 89 87 89 101 107 107 112 118 114 107 109 115 118 122 128 132 133 139 146 147 144 142 141 141 141 139 137 137 137 136 134 132 132 129 118 108 101 93
36 46 72 111 117 105 89 89 96 101 107 111 115 118 120 115 104 92 83 77 71 62 55 52 49 47 43 38 33 30 24 22 25 22 19 19 19 21 21 18 28 37 37 82 96 91 91 93 92 93 99 101 101 105 110 108 107 111 112 110 110 115 118 122 130 137 137 136 136 135 135 136 136 135 133 133 132 129 124 118 109 101 98 95 89
31 31 40 83 117 108 104 116 117 116 116 119 125 132 135 129 121 113 106 95 83 72 65 62 59 58 56 52 50 49 47 47 48 43 38 40 41 37 37 47 59 66 91 105 98 93 92 92 91 91 93 95 97 101 103 102 104 106 106 105 104 104 107 113 121 124 123 125 128 129 130 133 133 132 130 127 124 121 112 99 90 88 91 98 103
31 32 32 17 315 294 278 257 200 150 138 136 139 141 140 138 134 129 123 113 101 86 75 71 71 70 67 62 58 55 54 53 54 54 54 62 68 67 67 78 87 93 100 101 97 95 94 93 92 92 92 93 94 95 94 95 97 97 97 97 97 97 98 100 104 107 111 117 121 122 123 124 124 122 121 118 110 101 93 85 79 76 86 107 121
18 15 13 352 324 307 290 270 251 234 225 222 208 184 162 155 149 142 133 125 116 104 93 86 84 78 72 67 63 59 58 58 61 64 66 71 80 86 88 90 92 93 93 94 95 93 92 91 90 90 89 88 88 88 87 88 89 89 91 93 92 92 93 94 97 103 108 110 112 114 115 114 111 105 101 97 88 80 75 70 64 70 103 122 129
359 344 331 325 323 320 308 286 268 255 248 248 255 253 233 207 189 172 155 140 128 120 112 102 94 85 77 70 65 61 59 58 61 67 71 72 79 93 94 93 93 92 91 91 91 90 88 87 85 85 84 83 82 82 82 85 87 88 91 93 94 94 96 98 101 103 104 104 104 105 103 98 89 79 69 58 48 42 34 18 4 23 119 140 136
344 333 323 315 310 309 305 295 287 280 274 268 264 259 248 234 222 207 190 172 156 145 137 125 111 98 86 78 71 64 59 55 55 64 76 86 94 98 98 98 97 96 93 92 90 88 86 83 79 77 76 75 75 76 78 81 84 87 90 92 95 97 98 99 100 98 97 98 97 92 86 79 68 54 40 29 20 8 347 320 283 214 160 165 161
321 322 319 309 299 294 291 285 282 283 283 279 270 261 255 242 228 219 210 198 186 173 163 152 138 121 108 100 88 72 61 57 62 74 85 93 96 97 99 100 98 96 95 94 91 88 86 83 78 75 72 70 68 68 70 72 74 77 80 81 85 90 93 94 93 88 86 86 83 76 68 60 50 37 27 17 3 339 314 281 233 191 167 165 159
299 309 313 308 299 290 282 276 276 281 286 280 266 255 252 244 230 222 216 208 202 194 184 175 167 153 135 120 102 75 60 65 78 87 92 94 93 93 94 94 94 94 95 94 92 90 88 85 80 75 71 67 64 61 61 62 65 65 63 63 72 85 92 91 88 84 80 77 72 66 57 48 37 27 15 2 342 318 287 246 218 193 167 151 136
286 292 298 301 299 292 283 276 276 281 287 283 262 248 244 243 237 228 220 213 208 203 196 190 188 184 165 131 90 51 46 80 95 98 99 99 96 92 89 88 89 92 93 92 91 90 88 85 80 76 73 71 68 65 62 60 61 61 58 62 81 97 100 95 91 88 82 76 69 58 46 35 24 10 355 333 306 282 256 229 204 183 169 161 151
287 286 286 289 290 288 283 277 276 278 281 277 261 248 246 249 247 236 225 218 214 208 200 194 193 191 179 153 112 70 74 114 118 115 112 107 101 96 91 88 89 91 92 91 89 86 85 81 75 70 66 62 56 53 50 48 48 51 59 90 111 113 111 105 96 87 77 64 50 39 27 14 358 340 319 298 275 252 233 215 203 190 184 182 178
308 299 293 290 287 283 278 274 273 274 274 271 265 257 254 255 252 240 227 221 216 208 199 192 189 185 177 165 141 117 124 139 138 133 129 121 113 108 102 98 97 98 97 95 92 87 83 79 70 61 51 43 34 28 22 21 26 42 73 104 112 112 112 107 89 70 55 42 31 23 11 354 332 307 286 268 248 231 216 211 208 202 197 197 195
324 315 309 302 294 285 278 272 268 265 265 266 266 265 263 260 255 244 232 224 216 206 197 191 187 181 174 164 147 134 143 154 152 148 144 137 130 124 117 112 112 111 108 105 101 92 79 70 62 50 36 28 25 21 23 38 48 51 69 98 108 108 103 89 62 40 29 23 17 9 359 342 315 288 271 254 242 233 222 213 212 207 203 208 202
322 319 316 311 303 294 284 276 268 263 262 262 263 264 264 260 252 242 233 225 216 205 196 190 184 177 169 161 152 151 161 167 164 161 159 155 150 142 133 127 125 122 115 109 103 90 72 59 50 39 27 23 28 38 58 72 72 70 74 86 99 97 74 47 31 19 13 10 5 356 346 331 302 274 261 255 250 244 233 227 227 224 229 246 262
305 308 311 311 308 303 294 285 277 269 265 263 263 263 262 257 247 236 228 223 215 204 194 189 184 179 172 163 157 161 170 174 173 174 174 170 164 155 147 141 137 131 124 113 103 88 68 55 46 38 37 49 65 71 75 77 77 79 82 76 67 55 35 20 11 6 4 4 359 348 335 321 296 265 256 262 258 243 236 241 240 237 261 293 301
297 297 299 301 303 303 301 298 292 282 273 270 267 263 257 250 240 230 223 219 213 203 195 190 186 183 179 170 165 169 176 180 183 184 184 181 176 167 160 156 152 146 136 124 116 99 72 57 49 45 53 76 90 86 78 70 56 42 24 13 8 7 4 0 356 354 353 351 345 336 324 312 295 264 252 260 260 243 237 243 245 250 280 300 296
300 296 294 293 295 299 302 303 302 295 286 277 269 260 251 242 233 224 218 214 208 200 193 190 188 187 182 176 174 178 183 188 192 192 191 190 186 177 171 171 171 170 166 159 151 128 73 51 44 41 56 101 111 97 87 72 44 12 352 347 345 343 343 342 338 333 329 324 320 316 310 303 296 278 259 252 248 242 241 245 250 262 285 294 295
305 302 298 295 296 300 304 307 306 300 291 279 268 257 247 237 227 219 213 208 202 195 191 189 189 187 183 179 180 185 190 193 196 196 194 193 189 183 181 182 187 190 192 191 192 188 156 68 44 33 163 170 150 131 138 128 71 17 357 359 355 344 338 333 322 310 306 308 311 310 306 301 297 289 273 255 245 244 248 252 257 271 289 293 298
314 316 314 309 305 306 309 311 308 300 290 279 267 255 243 233 223 216 211 204 196 190 188 187 185 184 183 183 185 190 195 197 197 197 196 193 191 189 190 194 199 201 201 202 202 200 199 202 199 193 189 187 180 172 170 152 51 2 353 1 358 346 338 333 323 312 316 326 330 329 322 310 298 291 280 262 250 249 253 257 263 276 290 296 303
321 326 323 317 313 312 311 308 303 294 286 276 263 249 237 226 215 207 201 195 187 183 186 189 188 186 189 192 194 196 199 200 199 198 197 195 196 197 199 201 204 204 202 200 198 194 193 199 197 192 189 187 184 182 183 177 11 351 347 352 353 353 1 5 357 352 353 352 353 355 349 335 313 292 282 272 262 259 259 259 265 275 285 297 309
321 321 321 318 316 315 312 307 299 289 280 270 254 236 220 207 198 192 188 187 185 186 189 191 191 191 195 199 200 198 198 197 198 198 199 200 204 206 206 205 205 202 199 196 192 189 187 187 187 189 192 189 186 189 203 204 7 358 1 12 26 41 44 31 15 11 9 5 3 6 5 0 350 327 296 279 271 266 261 261 272 282 292 303 312
Height
820 822 824 826 828 829 832 833 835 837 838 840 841 843 845 846 847 849 850 851 852 853 854 854 855 856 857 858 858 859 859 860 860 860 861 861 861 861 861 861 861 861 861 862 861 862 862 862 862 862 862 862 861 861 861 860 860 860 860 859 859 859 859 859 860 860 859 859 859 859 858 857 856 856 855 855 855 855 854 854 854 853 853 852 852
817 819 821 824 825 827 829 831 833 835 836 838 839 841 843 844 846 847 848 849 850 851 852 853 854 855 855 856 857 858 858 859 859 860 860 860 860 860 860 860 860 860 860 860 861 861 861 861 861 860 860 860 860 860 860 859 859 859 858 858 858 858 858 859 859 859 859 859 859 858 858 857 856 856 855 855 855 855 855 854 854 853 853 852 852
815 817 819 822 823 825 827 829 831 832 834 835 837 839 841 842 844 845 846 848 849 850 851 851 852 853 854 855 855 856 857 857 858 859 859 859 859 859 859 859 860 860 859 860 860 860 860 860 859 859 859 859 859 858 858 858 858 858 858 857 857 857 858 858 858 858 858 858 858 858 857 857 857 856 856 855 855 855 855 854 854 854 853 852 851
814 816 818 820 822 824 826 827 829 830 831 833 835 837 839 840 842 844 845 846 847 848 849 850 851 852 852 853 853 854 855 856 857 857 857 858 858 858 858 858 859 859 859 859 859 859 859 858 858 858 858 857 857 857 857 857 857 857 857 857 856 857 857 857 857 857 857 857 857 857 857 857 856 856 856 855 855 855 854 854 854 853 853 852 851
814 815 816 819 820 822 824 826 827 829 830 832 833 835 837 838 840 842 843 845 846 847 848 848 849 850 850 851 852 853 853 854 855 856 856 856 857 857 857 857 857 858 857 857 857 857 857 857 857 857 856 856 855 855 855 855 855 855 855 855 855 856 856 856 856 856 856 856 856 856 856 856 856 856 855 855 855 854 854 854 853 853 852 852 851
812 813 815 817 819 821 823 824 826 827 829 831 832 834 835 836 838 839 841 842 844 845 846 847 848 848 849 849 850 851 852 853 853 854 855 855 855 855 855 856 856 856 856 856 856 856 855 855 855 855 855 855 854 854 854 854 854 854 854 854 854 854 855 855 855 855 855 855 855 856 856 855 855 855 854 854 854 853 853 853 852 852 852 851 850
810 812 814 816 818 819 821 823 824 826 828 830 832 833 834 835 836 838 839 840 841 843 844 845 846 847 847 848 848 849 850 850 851 852 853 853 853 854 854 854 854 854 854 854 854 854 854 854 854 853 853 853 853 853 853 853 853 852 852 853 853 853 853 853 853 854 854 854 854 854 854 854 854 854 853 853 853 852 852 852 851 851 851 851 850
807 810 811 813 816 817 819 821 823 825 826 828 830 831 833 834 835 836 838 838 839 840 841 843 844 845 845 846 847 847 848 848 849 850 850 851 851 852 852 852 852 852 853 853 853 853 852 852 852 852 852 851 851 851 851 851 851 851 851 851 851 852 852 852 852 852 853 853 853 853 853 853 853 853 852 852 852 851 851 851 851 851 850 850 849
804 807 809 810 812 814 816 818 820 822 824 825 827 829 830 832 833 835 836 836 837 838 839 841 842 842 843 844 845 846 846 847 847 848 848 849 849 850 850 851 851 851 851 851 851 851 851 850 850 850 850 850 850 850 849 849 849 849 850 850 850 850 850 851 851 851 851 852 852 852 852 852 852 852 851 851 851 851 851 851 851 850 850 850 849
801 803 806 808 810 811 813 815 816 818 820 822 825 826 828 830 831 832 833 834 835 836 837 838 839 840 841 842 843 843 844 845 845 846 847 847 847 848 848 849 849 849 849 849 849 849 849 849 848 848 848 848 848 848 848 848 847 847 848 848 848 848 849 849 849 850 850 850 850 851 851 851 851 851 850 850 850 850 850 850 850 850 850 849 849
799 801 803 806 808 810 811 812 814 816 818 820 822 823 825 826 828 829 831 832 833 834 834 835 837 838 839 839 840 841 842 843 843 844 845 845 845 846 846 847 847 847 848 847 847 847 847 847 847 847 847 846 846 846 846 846 846 846 846 846 846 847 847 847 848 848 848 849 849 849 849 850 850 849 850 850 850 850 850 850 850 849 849 849 849
800 802 803 805 807 808 810 811 813 814 816 818 820 821 822 822 824 826 828 830 831 832 833 833 834 836 837 838 838 839 840 841 841 842 843 843 844 844 844 845 845 845 846 845 846 846 846 845 845 845 845 845 845 844 844 844 845 845 845 845 845 845 845 846 846 847 847 847 847 847 848 848 848 848 848 849 849 849 849 849 849 849 849 849 849
801 804 806 806 805 807 809 810 811 813 815 817 818 819 820 820 822 824 825 827 829 831 831 831 832 833 835 836 837 837 838 839 839 840 841 841 842 842 842 842 843 843 843 843 843 844 844 844 843 843 843 843 843 843 842 842 843 843 843 843 843 843 844 844 844 845 846 846 846 846 846 846 846 846 847 847 847 848 848 848 848 848 848 848 848
799 803 806 806 804 805 807 807 809 811 813 815 816 818 819 820 821 822 823 824 826 829 830 829 829 831 832 833 834 835 836 837 837 838 838 839 839 840 840 840 840 840 841 841 841 841 842 842 842 841 841 841 841 841 840 841 841 841 841 841 841 841 842 843 843 844 844 844 844 845 845 845 845 845 845 846 846 846 846 846 847 847 848 848 848
799 802 805 806 804 804 805 806 807 809 811 813 815 817 818 819 820 821 822 823 825 826 827 827 827 829 830 830 831 833 834 835 835 836 836 836 837 837 837 838 838 838 838 838 838 839 839 840 839 839 839 839 839 839 839 839 839 839 839 839 839 840 841 841 842 842 843 843 844 844 844 845 845 845 845 845 845 845 845 845 845 845 846 847 847
800 802 805 806 805 803 804 805 807 808 810 811 813 815 816 818 821 822 822 822 823 824 825 825 826 827 828 829 829 831 832 833 834 834 834 835 835 835 835 835 835 835 835 836 836 836 837 837 837 837 837 837 837 837 837 837 837 837 837 837 838 839 840 841 842 843 844 844 845 845 845 845 845 845 844 844 844 844 843 843 843 844 845 846 846
800 803 805 807 806 805 805 805 806 807 809 811 813 814 814 817 820 822 822 821 821 822 823 824 825 826 827 827 828 829 830 831 832 832 833 833 834 834 834 833 833 833 833 833 834 834 834 834 834 834 834 835 835 836 836 835 835 835 836 836 837 839 840 842 843 844 843 843 844 845 846 847 846 844 844 843 842 842 841 841 841 842 843 844 845
799 802 805 806 807 806 806 806 807 808 810 812 813 813 813 814 817 819 821 820 821 822 822 823 824 825 825 826 827 828 829 829 830 831 832 832 832 832 832 832 832 831 831 831 831 831 831 831 832 832 832 833 833 834 834 834 834 834 834 836 837 839 839 840 840 841 841 841 841 841 843 847 847 844 843 842 841 841 840 840 840 841 841 842 843
799 801 804 805 806 807 807 808 808 809 811 812 813 813 813 813 814 817 819 820 820 821 821 822 823 823 824 825 826 826 827 827 829 830 830 831 831 831 830 830 830 829 829 829 829 829 829 829 829 829 829 830 832 833 834 833 833 834 834 835 836 836 837 837 838 838 839 840 840 840 841 845 845 843 842 841 840 840 840 840 840 841 841 842 842
800 801 803 805 806 807 808 810 811 811 812 813 813 813 813 813 814 816 817 818 819 820 821 822 823 823 823 824 824 824 825 825 827 828 828 829 829 829 829 828 828 827 827 828 828 827 827 827 827 827 827 828 830 832 832 831 831 832 833 834 834 834 834 835 836 837 838 838 839 840 840 842 843 842 841 840 840 840 840 840 841 841 842 842 842
802 803 805 806 808 809 810 812 813 813 814 815 815 815 815 815 815 816 816 817 817 818 819 820 821 822 823 823 823 823 823 824 825 826 827 827 827 827 827 827 826 826 826 827 828 827 826 826 826 826 826 826 827 828 829 829 829 829 830 831 832 832 833 833 834 835 836 837 838 839 839 840 841 841 841 840 840 840 840 840 841 842 842 842 843
804 806 808 809 811 812 813 814 814 814 815 816 815 815 815 814 815 816 816 816 816 817 818 819 820 821 822 823 823 823 822 823 825 826 826 826 826 826 826 825 825 825 825 826 826 826 824 824 824 824 824 824 824 825 826 827 827 826 827 828 829 831 831 831 832 833 834 835 836 837 837 838 840 840 840 840 840 840 840 840 841 841 842 843 843
808 809 810 812 813 815 815 816 816 816 816 816 816 816 815 814 815 815 816 817 818 818 819 820 821 821 822 822 823 823 823 824 825 826 826 825 825 825 825 824 824 823 823 823 823 822 822 822 822 823 823 823 823 822 823 824 824 825 825 825 827 828 829 829 830 831 831 833 834 836 837 838 839 839 839 839 840 840 840 840 841 841 842 842 843
811 813 813 814 815 816 817 819 819 819 818 818 819 818 816 815 815 816 816 817 819 821 822 823 823 822 823 823 823 825 825 826 826 826 826 826 825 825 824 824 823 822 821 821 821 820 820 820 820 821 822 822 822 822 821 821 822 824 824 823 824 826 828 828 829 830 831 832 833 835 837 837 837 838 838 839 839 839 840 840 841 842 842 842 843
814 815 816 816 817 818 819 820 820 820 820 819 819 818 817 817 818 818 818 819 821 823 825 825 825 825 825 825 824 825 826 826 827 827 827 827 826 825 824 823 822 822 821 820 820 819 819 819 819 820 820 821 821 821 821 820 821 823 823 823 823 825 828 829 831 833 834 832 831 833 834 835 836 837 837 838 839 839 840 840 841 842 842 842 843
816 817 817 817 817 818 819 819 821 822 822 821 820 819 820 820 820 820 821 822 824 826 827 828 828 828 828 827 826 826 826 826 827 828 828 827 826 825 825 824 823 822 821 820 820 819 818 818 819 819 819 819 820 821 822 821 821 821 822 822 822 824 827 828 829 832 834 831 829 830 832 834 835 836 837 838 839 839 840 840 841 841 842 842 843
819 819 818 818 819 819 819 820 822 822 822 822 821 822 822 822 822 823 823 825 827 828 829 829 830 830 829 828 827 827 827 827 828 828 828 827 826 826 825 824 823 822 821 820 819 818 817 817 817 818 818 819 821 822 822 821 820 820 820 820 821 823 824 825 826 829 831 830 829 830 831 833 835 836 837 838 839 839 840 841 841 841 842 842 842
820 820 820 820 820 820 821 821 822 822 822 822 823 824 824 825 825 825 826 827 827 828 829 829 829 829 828 828 828 828 829 829 829 828 828 827 826 826 825 824 823 822 821 821 819 818 817 817 816 817 818 819 821 822 821 820 819 819 819 820 820 821 823 824 826 828 829 828 829 830 832 833 835 836 837 838 839 840 841 842 842 842 842 842 842
822 822 821 821 821 821 822 822 822 823 824 824 825 826 826 827 827 827 827 827 828 828 829 829 829 829 829 829 829 829 830 830 830 829 829 828 827 826 824 824 823 822 822 821 820 819 818 817 817 817 818 819 820 821 821 820 820 820 820 820 820 821 823 824 826 828 829 829 829 831 832 834 835 836 837 838 839 840 841 842 842 842 842 842 842
823 823 823 823 823 823 823 824 824 825 826 827 828 828 828 829 829 828 828 828 829 829 829 829 829 829 829 829 830 830 830 831 831 830 830 829 828 826 825 824 823 822 822 821 820 820 819 818 818 818 819 820 821 821 821 821 821 821 821 820 821 822 824 824 825 827 829 830 830 831 833 834 836 837 838 839 840 841 841 842 842 842 842 842 843
824 824 824 824 824 824 825 825 826 827 828 829 829 830 830 830 830 830 830 830 830 830 830 830 830 830 830 831 831 831 831 831 831 831 830 829 829 828 826 825 824 823 822 822 821 821 820 820 820 820 821 822 822 822 822 822 822 823 823 822 823 825 825 825 826 827 829 831 832 833 834 836 837 838 838 840 841 841 841 842 842 842 842 842 842
825 825 825 826 826 826 827 827 828 829 829 830 831 831 831 832 832 832 832 832 832 832 831 831 832 832 832 832 832 832 832 832 832 832 831 830 829 829 828 826 825 824 823 823 822 823 823 822 823 823 824 824 825 825 825 824 825 825 825 825 827 827 827 828 829 829 830 832 833 835 836 837 838 839 839 840 841 842 842 842 842 842 842 842 842
826 827 827 827 828 828 829 829 830 831 831 832 832 832 833 833 833 834 834 834 834 834 833 833 833 833 833 834 833 833 833 833 833 832 832 831 830 829 828 827 826 826 825 824 824 824 824 825 825 826 826 827 827 827 827 827 827 828 828 828 829 830 830 831 831 831 832 833 835 836 837 838 839 840 840 841 842 842 843 843 843 843 843 843 843
828 829 829 829 829 830 830 831 831 832 833 833 834 834 834 834 834 835 835 835 835 835 835 835 835 835 835 835 835 835 834 834 834 833 833 832 832 831 830 829 828 828 827 826 826 826 827 827 827 828 828 829 829 830 830 830 831 831 831 832 832 833 833 834 834 834 835 836 837 838 839 840 841 841 842 842 843 843 843 843 843 843 843 843 843
830 830 830 830 831 831 831 832 832 833 833 834 834 835 835 835 836 836 836 836 836 837 837 837 837 837 837 837 836 836 836 835 835 834 834 834 834 833 832 831 831 830 830 829 829 830 830 830 830 831 831 831 832 832 833 833 834 834 835 835 836 836 836 836 837 837 838 838 839 840 841 841 842 842 843 843 843 844 844 844 844 844 844 844 843
830 830 830 831 831 831 832 832 832 833 833 834 834 835 835 835 836 836 836 837 837 837 838 838 838 838 838 838 838 838 837 837 836 836 836 835 835 835 834 834 833 833 833 833 833 833 833 833 833 834 834 834 834 835 835 836 836 837 837 838 838 838 839 839 839 840 840 840 841 841 842 842 843 843 844 844 844 844 844 844 844 844 844 844 843
830 830 830 831 831 831 832 832 832 833 833 833 833 834 834 834 835 836 836 837 837 838 839 839 840 840 840 840 840 839 839 839 838 837 837 837 837 836 836 836 836 836 836 836 836 836 836 836 836 836 837 837 837 837 837 838 838 839 839 840 840 840 841 841 841 841 842 842 842 842 843 843 843 844 844 844 844 844 844 844 844 844 844 844 844
831 831 831 831 831 831 832 832 832 832 833 833 833 833 833 833 834 835 835 836 837 838 839 839 840 841 841 841 841 841 841 840 840 839 839 838 838 838 838 838 838 837 838 838 838 838 838 838 839 839 839 839 839 839 840 840 840 840 841 841 841 842 842 842 842 843 843 843 843 843 844 844 844 844 844 844 845 844 844 844 844 844 844 844 844
831 831 831 831 831 831 831 831 832 832 832 832 832 832 833 833 833 834 835 836 837 838 838 839 840 841 841 841 841 841 841 841 841 840 840 840 840 840 840 840 840 840 840 840 840 840 840 840 841 841 841 841 841 841 842 842 842 842 842 842 842 843 843 843 843 843 844 844 844 844 844 844 844 845 845 845 845 845 845 845 844 844 844 844 844
831 831 831 830 830 831 831 831 831 831 831 832 832 832 832 833 833 833 834 835 836 837 838 838 839 840 840 841 841 841 841 841 841 841 841 841 841 841 841 841 842 842 842 842 842 842 842 842 843 843 843 843 843 843 844 844 844 843 843 843 843 844 844 844 844 844 844 844 845 845 845 845 845 845 845 845 845 845 845 845 845 844 844 844 844
831 831 830 830 830 830 830 830 830 830 831 831 831 831 832 832 832 833 834 834 835 836 837 838 838 839 840 840 840 841 841 841 841 842 842 842 842 842 843 843 843 843 844 844 844 844 844 844 844 845 845 845 845 845 845 845 845 844 844 844 844 844 844 845 845 845 845 846 846 845 845 845 845 845 844 844 844 844 844 844 845 844 844 844 844
830 830 830 829 829 829 829 829 829 829 830 830 830 830 831 831 831 832 832 833 834 835 836 837 838 838 839 840 840 840 841 841 842 842 843 843 843 843 843 844 844 844 845 845 846 846 846 846 846 846 846 846 846 846 846 846 845 845 845 845 845 845 846 846 846 846 846 847 846 846 846 845 845 844 844 844 844 844 844 844 844 844 844 844 844
828 828 828 828 828 828 828 828 828 828 828 828 828 829 829 829 830 830 831 831 832 833 834 835 836 837 838 839 840 840 841 841 842 843 843 844 844 844 844 845 845 845 846 846 846 846 847 847 847 847 847 847 847 847 847 847 846 846 846 846 846 846 846 847 847 847 847 847 846 846 845 845 844 844 844 844 843 843 843 843 844 844 844 844 844
827 826 826 826 826 826 826 827 827 827 827 827 827 827 828 828 828 829 829 830 830 831 832 834 835 836 838 838 839 840 840 841 842 843 843 844 844 845 845 845 845 846 846 846 847 847 847 847 847 847 847 847 847 847 847 847 847 847 847 847 847 847 847 847 847 847 847 847 847 846 845 845 844 844 844 843 843 843 843 843 843 843 843 843 843
826 825 825 825 825 825 825 825 825 826 826 826 826 826 826 827 827 827 828 829 829 830 831 832 834 835 836 837 838 839 840 841 842 842 843 844 844 845 845 845 846 846 846 847 847 847 848 848 848 848 848 848 848 848 848 848 848 848 848 848 849 849 849 848 848 848 847 847 847 846 845 844 844 843 843 843 843 843 843 843 843 843 843 843 843
825 824 824 824 823 823 823 823 824 824 824 824 825 825 825 825 825 826 827 827 828 829 830 831 833 834 835 836 837 838 839 840 841 842 843 843 844 844 845 845 846 846 847 847 847 847 848 848 848 848 848 848 848 848 848 848 848 849 849 849 849 849 849 849 848 848 847 847 846 845 845 844 843 843 843 843 843 843 843 843 843 843 843 843 842
823 823 823 822 822 822 822 822 822 822 822 822 822 823 823 823 824 824 825 826 826 827 828 830 832 833 834 835 837 838 839 840 841 841 842 843 843 844 844 845 845 846 846 847 847 847 847 848 848 848 848 848 847 848 848 848 848 849 849 849 849 849 849 848 848 847 846 846 845 844 843 843 842 842 842 842 842 842 842 843 843 843 842 842 842
821 821 821 821 821 821 821 820 820 820 820 820 821 821 821 822 823 823 823 824 825 826 827 829 830 832 833 835 836 837 838 839 840 841 842 842 843 843 844 844 845 846 846 846 847 847 847 847 847 847 847 847 847 847 848 848 848 848 848 848 848 848 848 847 847 846 845 844 844 843 843 842 842 842 842 841 842 842 842 842 842 842 842 842 841
820 820 820 819 820 820 819 819 819 819 819 819 819 820 820 821 821 821 822 823 823 824 826 828 829 831 833 835 836 837 838 838 839 840 841 842 842 843 843 844 845 845 845 846 846 847 847 847 847 847 847 847 848 848 848 848 848 848 848 848 848 847 847 846 846 845 845 844 844 843 842 842 841 841 841 841 841 841 842 842 842 841 841 841 840
819 819 819 818 818 818 818 818 818 818 818 818 819 819 819 820 820 821 822 822 823 824 826 828 829 831 833 834 836 837 837 838 839 839 840 841 842 842 843 843 844 844 845 845 846 846 847 847 847 847 848 848 848 848 848 848 848 848 848 847 847 847 847 846 846 845 845 844 844 843 842 842 841 841 841 841 841 841 841 841 840 840 840 839 839
818 818 818 817 817 817 817 817 817 818 818 818 818 819 819 820 821 821 822 823 824 825 827 828 830 831 833 834 836 836 837 838 838 839 840 841 841 842 843 843 843 844 844 845 845 846 846 847 847 848 848 848 848 848 848 848 848 848 847 847 846 846 846 846 846 845 845 844 844 843 842 841 841 840 840 840 840 840 839 839 839 839 838 838 837